RH
49 27 35 32 73 96 94 100 99 92 100 98 98 89 82 89 93 98 99 98 71 57 65 80 59 32 36
69 39 41 36 37 90 87 98 100 99 100 98 98 89 83 85 91 97 99 100 64 65 66 65 36 30 32
78 85 54 48 35 88 92 96 100 100 100 96 98 88 86 82 90 94 99 97 67 64 66 47 25 27 28
82 82 80 63 52 75 95 100 96 99 100 100 97 93 89 84 87 92 99 99 78 69 64 30 24 25 25
92 92 87 70 82 71 97 93 90 95 99 100 100 100 95 88 84 91 96 99 80 63 41 26 25 24 24
97 100 89 87 89 78 98 97 87 92 98 100 100 100 100 94 84 90 93 99 86 58 37 26 25 25 24
96 94 93 87 87 97 97 98 95 88 98 100 100 100 100 98 88 86 91 96 92 61 42 27 26 25 24
95 95 98 96 90 90 92 96 98 95 99 96 100 100 99 98 91 87 91 93 95 56 32 27 28 27 24
100 100 98 100 99 94 91 95 94 94 97 100 100 100 100 100 93 92 88 90 93 61 29 28 27 29 27
84 88 96 97 99 96 100 98 98 95 100 98 99 100 100 100 97 100 92 88 86 77 35 29 29 32 29
88 90 87 88 91 92 100 99 98 97 97 100 99 100 94 100 100 100 99 93 91 89 85 33 30 30 28
83 87 89 90 88 86 90 94 93 96 98 100 98 100 100 100 100 100 100 95 94 92 93 63 34 32 30
97 91 78 81 86 93 100 96 95 96 97 100 100 100 100 99 99 100 100 100 96 92 94 84 44 38 36
87 98 94 84 91 90 99 92 96 95 98 99 100 100 100 98 98 100 100 100 100 95 93 86 76 41 36
88 90 96 86 91 94 99 95 97 96 98 99 100 100 100 100 100 95 98 100 99 98 95 96 87 66 42
83 94 97 92 87 92 96 94 96 95 97 99 100 100 100 100 96 94 100 98 98 98 96 95 95 86 67
91 80 94 94 98 93 93 95 100 98 97 99 100 100 100 100 100 99 94 100 98 100 96 92 85 82 79
Wind_Speed
40 36 34 32 26 16 20 20 48 61 63 60 56 52 50 49 46 44 41 38 35 32 30 27 24 20 16
42 38 35 30 29 25 32 23 12 67 69 64 61 55 52 51 48 45 43 41 37 34 32 29 25 22 18
41 36 35 30 27 22 32 35 16 52 78 68 63 57 55 52 50 47 47 43 40 36 34 31 26 23 20
37 37 33 30 26 24 29 30 30 13 57 71 61 57 59 54 53 50 49 45 41 39 36 31 28 25 21
35 34 34 33 27 23 23 30 24 26 18 66 65 64 62 57 54 52 48 48 44 42 38 33 30 26 23
34 32 33 31 27 25 26 21 32 29 24 64 74 70 68 64 57 54 49 48 46 44 40 35 32 28 25
37 37 34 32 27 23 25 20 28 36 11 24 68 70 70 66 60 54 52 48 48 46 42 38 34 31 27
35 38 36 34 31 29 29 30 31 38 35 19 54 68 71 68 63 58 55 50 47 48 43 40 37 33 29
28 29 34 30 28 27 29 30 31 34 36 33 27 62 70 71 66 62 55 50 48 45 45 43 39 35 31
30 29 28 28 29 27 28 28 28 29 19 22 29 55 45 67 68 66 59 51 46 40 44 45 42 40 36
30 28 28 29 33 34 30 27 26 28 21 24 5 47 49 56 71 68 65 59 53 43 37 46 45 44 41
32 31 32 30 28 27 37 39 37 34 25 20 27 4 42 55 59 72 70 64 61 53 43 44 47 44 42
34 34 28 30 26 23 23 29 37 40 32 28 30 17 25 62 60 69 71 71 66 58 50 48 54 50 48
34 30 30 27 27 23 21 22 31 37 36 29 25 15 29 64 68 67 70 64 72 65 56 49 52 54 50
31 32 32 30 27 22 22 20 24 29 30 27 22 13 27 57 69 78 74 65 73 70 62 58 53 53 54
29 29 29 29 27 22 19 20 22 26 28 26 18 11 25 49 67 75 73 76 72 72 67 63 58 55 51
28 27 29 28 25 23 21 21 15 18 26 24 19 10 30 39 44 66 80 68 74 72 72 68 63 60 56
Wind_Direction
292 293 290 287 276 259 278 333 209 211 202 199 199 196 194 196 195 191 186 185 183 181 174 172 170 164 162
289 293 291 287 284 272 267 279 240 204 202 198 198 194 195 196 197 194 188 187 184 182 176 177 175 170 168
283 288 289 289 282 257 251 266 285 200 204 199 195 193 194 199 197 198 188 190 185 184 179 181 176 175 172
279 284 287 289 283 273 251 265 268 276 197 196 195 196 196 199 198 199 192 191 188 184 185 183 178 180 176
274 279 281 286 286 266 266 265 258 265 218 192 196 195 196 198 200 200 201 192 191 188 187 184 182 183 180
269 272 278 282 287 280 268 274 252 251 219 189 196 193 195 196 198 198 202 199 193 191 191 184 185 186 184
268 266 270 274 280 276 265 266 248 247 275 208 191 193 196 197 196 199 201 204 196 193 192 186 187 188 187
252 260 266 270 272 274 268 263 248 244 248 286 191 188 195 198 197 198 201 203 207 196 193 188 189 191 190
262 263 260 260 265 273 267 264 264 246 245 261 234 182 191 194 196 198 199 204 210 206 194 191 190 192 193
269 263 253 249 249 248 259 258 260 261 254 279 230 170 175 191 196 195 196 203 212 210 200 194 192 193 195
267 266 263 255 247 242 241 247 255 250 234 285 232 175 178 175 195 195 195 196 203 209 204 200 197 197 196
257 258 258 260 259 252 242 243 247 250 242 242 270 267 180 176 180 192 195 197 199 202 199 199 203 202 205
258 253 254 258 264 261 253 249 249 250 243 243 259 258 196 180 179 186 187 197 199 199 196 195 200 202 204
249 259 257 256 254 258 251 253 250 249 240 237 252 276 194 183 184 182 186 187 198 200 198 196 200 205 207
249 247 254 251 252 250 240 243 244 247 242 238 246 254 188 181 182 190 188 189 198 199 199 200 201 204 207
249 242 245 243 245 244 235 239 243 243 240 240 236 223 177 176 189 186 189 194 196 200 201 203 203 204 205
243 243 239 241 237 236 231 220 212 225 238 231 222 206 164 169 177 189 189 188 195 200 203 205 207 207 205